Details From YGLA - Gladstone
To YBHM - Hamilton I.
Flight Number -
Tags decoded
Created
Modified
Stats Distance 246 nm / 455 km
Max Altitude 0 ft / 0 m
Waypoints 2
Social Downloads 0
Likes 0
Share VATSIM

Download

Looking for another format? Having issues loading an existing format? Contact us
Advertisement - Login to hide

Notes

Requested: YGLA EGUGO Y32 ELDEK YBHM Unmatched points: EGUGO ELDEK

Route

YGLA YBHM

ID Type Via Altitude Latitude Longitude Leg Dist Tot Dist Heading (true) Name
O YGLA APT - 0 ft / 0 m -23.86947˚ 151.22448˚ - 0 nm - Gladstone
O YBHM APT - 0 ft / 0 m -20.35748˚ 148.95164˚ 245 nm 245 nm 329° / 329° Hamilton I.

Altitude Profile

Advertisement - Login to hide

Weather


0- 5 10 15 20 25 30 35+ Temperature / ° C

Clouds and Precipitation
Forecast for 2018-05-26 12:00 UTC. Updated an hour ago

Ground ~20,000 ft ~40,000 ft Winds

YGLA

Details ICAO YGLA (GLT)
Name Gladstone
Region Australia
Timezone Australia/Brisbane (UTC+10.0)
Stats Elevation 64 ft / 20 m (AMSL)
Location -23.869471° 151.224483°
Runways 1
Magnetic Variation 9.522° E

METAR

YGLA 261200Z AUTO 16008KT 9999 // NCD 20/12 Q1024

Decode

TAF

TAF YGLA 261123Z 2612/2624 15010KT 9999 -SHRA FEW015 SCT025

Decode

Departure Runways

ID Width Length Bearing (true) Bearing (mag) Surface Threshold Offset Overrun Length
10 98 ft / 30 m 5,354 ft / 1,632 m 110.20° 100.68° Asphalt 0 ft / 0 m 89 ft / 27 m
28 98 ft / 30 m 5,354 ft / 1,632 m 290.20° 280.68° Asphalt 322 ft / 98 m 194 ft / 59 m

YBHM

Details ICAO YBHM (HTI)
Name Hamilton I.
Region Australia
Timezone Australia/Lindeman (UTC+10.0)
Stats Elevation 14 ft / 4 m (AMSL)
Location -20.357481° 148.951639°
Runways 1
Magnetic Variation 8.150° E

METAR

YBHM 261200Z AUTO 14027KT 9999 // SCT022 BKN026 BKN032 22/19 Q1020

Decode

TAF

TAF YBHM 261122Z 2612/2624 14025KT 9999 -SHRA SCT020 BKN030 INTER 2612/2700 3000 SHRA BKN012

Decode

Destination Runways

ID Width Length Bearing (true) Bearing (mag) Surface Threshold Offset Overrun Length
14 148 ft / 45 m 5,792 ft / 1,765 m 143.04° 134.89° Asphalt 0 ft / 0 m 0 ft / 0 m
32 148 ft / 45 m 5,792 ft / 1,765 m 323.03° 314.88° Asphalt 0 ft / 0 m 0 ft / 0 m

Popular Alternatives